Location: Star Dogged Moon Observatory
(29.7756°N, 82.0783°W)
Time: 23:58:27
(UTC-04:00)

Amateur Radio Satellites - All Passes

Search period start: 27 May 2015 23:28
Search period end: 28 May 2015 23:28
Location: Star Dogged Moon Observatory, 29.7756°N, 82.0783°W

Satellite Date Start Highest point End Downlink Frequencies (MHz)
Time Altitude Azimuth
NANOSAT C BR1 27 May 23:31:21 23:33:13 13° 92° (E) 23:35:19 145.865
UWE-3 27 May 23:36:15 23:39:49 21° 266° (W) 23:43:15 435.000/436.395/437.385
QB50P2 27 May 23:39:15 23:42:02 17° 94° (E) 23:44:58 145.880/145.840
FUNcube-1 27 May 23:43:50 23:47:25 22° 265° (W) 23:50:53 145.935
PCSat 27 May 23:45:59 23:47:10 11° 105° (ESE) 23:48:46 145.827
AISAT 27 May 23:47:06 23:51:32 87° 252° (WSW) 23:56:01 437.250
ANTELSAT 27 May 23:50:25 23:54:43 61° 100° (E) 23:58:56 437.575/2403.000
POPSAT HIP 1 27 May 23:50:47 23:54:11 24° 96° (E) 23:57:39 437.405
DUCHIFAT 1 27 May 23:51:58 23:55:22 24° 96° (E) 23:58:50 145.980
ISS 27 May 23:52:32 23:55:17 25° 320° (NW) 23:58:02 145.825
GONETS M04 28 May 00:02:28 00:08:46 23° 71° (ENE) 00:15:25
Cosmos 2504 28 May 00:08:18 00:11:07 12° 275° (W) 00:13:20 435.465 / 435.565
TISAT 1 28 May 00:09:11 00:10:36 12° 70° (ENE) 00:12:14 437.305
BUGSAT 1 28 May 00:10:49 00:14:25 27° 96° (E) 00:18:04 437.445
HUMSAT D 28 May 00:11:35 00:14:55 21° 265° (W) 00:18:09 437.325/437.525
DANDE 28 May 00:18:05 00:24:09 29° 69° (ENE) 00:29:13 436.750
TIGRISAT 28 May 00:22:54 00:27:07 52° 284° (WNW) 00:31:15 435.000
UKube-1 28 May 00:25:51 00:28:22 15° 266° (W) 00:30:41 .
QB50P1 28 May 00:34:00 00:38:17 89° 98° (E) 00:42:32 145.935-145.965
POLYITAN 1 28 May 00:36:32 00:40:49 83° 283° (WNW) 00:45:03 437.675
CUSAT 1 28 May 00:42:56 00:49:32 61° 78° (ENE) 00:54:30 437.405
UNISAT 6 28 May 00:44:12 00:47:55 28° 287° (WNW) 00:51:31 437.425
CUBEBUG 1 28 May 00:47:33 00:51:31 34° 262° (W) 00:55:29 437.445
VELOX 1 28 May 00:53:47 00:56:20 14° 267° (W) 00:58:40 145.980
ESTCUBE 1 28 May 00:59:14 01:02:47 22° 265° (W) 01:06:13 437.505/2401.250
NANOSAT C BR1 28 May 01:05:18 01:09:14 36° 286° (WNW) 01:13:06 145.865
VERMONT LUNAR 28 May 01:13:40 01:16:53 74° 149° (SSE) 01:20:07 437.305
QB50P2 28 May 01:14:18 01:17:57 27° 287° (WNW) 01:21:31 145.880/145.840
SPROUT 28 May 01:22:19 01:26:33 54° 261° (W) 01:30:47 437.525
PCSat 28 May 01:24:44 01:30:07 68° 296° (WNW) 01:35:31 145.827
POPSAT HIP 1 28 May 01:26:43 01:29:56 20° 288° (WNW) 01:33:01 437.405
ITUPSAT 1 28 May 01:26:45 01:29:16 15° 69° (ENE) 01:32:00 437.325
DUCHIFAT 1 28 May 01:27:52 01:31:03 20° 288° (WNW) 01:34:07 145.980
BEESAT 28 May 01:33:10 01:36:16 18° 70° (ENE) 01:39:33 436.000
SWISSCUBE 28 May 01:41:07 01:44:53 24° 72° (ENE) 01:48:45 437.505
TISAT 1 28 May 01:41:59 01:46:01 42° 261° (W) 01:50:04 437.305
BUGSAT 1 28 May 01:46:44 01:49:42 18° 289° (WNW) 01:52:31 437.445
PHONESAT 2.4 28 May 01:54:07 01:57:18 34° 144° (SE) 02:00:31 2401.200-2431.200
GONETS M04 28 May 01:57:38 02:06:15 61° 268° (W) 02:14:43
DANDE 28 May 02:01:03 02:07:30 35° 272° (W) 02:12:29 436.750
Oscar 19 28 May 02:09:49 02:14:02 26° 96° (E) 02:18:22 437.125/150
O/OREOS (USA 219) 28 May 02:22:06 02:26:31 59° 70° (ENE) 02:30:56 437.305
CUSAT 1 28 May 02:28:26 02:31:06 13° 279° (W) 02:33:08 437.405
Cosmos 2499 28 May 02:37:35 02:44:08 41° 79° (ENE) 02:50:57 435.465 / 435.565
VERMONT LUNAR 28 May 02:51:47 02:54:19 20° 343° (NNW) 02:56:49 437.305
KKS-1 28 May 02:56:49 03:00:19 24° 72° (ENE) 03:03:57 437.445
ITUPSAT 1 28 May 03:02:20 03:06:51 42° 261° (W) 03:11:21 437.325
BEESAT 28 May 03:09:34 03:13:54 34° 262° (W) 03:18:11 436.000
Gurwin Techsat 1B 28 May 03:09:43 03:14:10 28° 96° (E) 03:18:43 435.225
BEESAT 2 28 May 03:11:50 03:14:25 17° 53° (NE) 03:17:07 435.950
SWISSCUBE 28 May 03:18:44 03:22:40 25° 264° (W) 03:26:30 437.505
SO-50 28 May 03:21:22 03:25:58 88° 119° (ESE) 03:30:46 436.795
PHONESAT 2.4 28 May 03:32:11 03:35:25 34° 337° (NNW) 03:38:38 2401.200-2431.200
Oscar 19 28 May 03:49:02 03:53:20 27° 289° (WNW) 03:57:31 437.125/150
STARS 28 May 03:57:21 04:01:47 77° 76° (ENE) 04:06:14 437.465
BEESAT 3 28 May 03:58:17 04:02:20 76° 62° (ENE) 04:06:19 437.485
ITAMSAT 1 28 May 04:04:40 04:09:53 73° 283° (WNW) 04:15:05 435.822/435.867
JAS-2 28 May 04:23:04 04:27:05 23° 96° (E) 04:31:28 435.910
VERMONT LUNAR 28 May 04:30:55 04:32:16 12° 359° (N) 04:33:38 437.305
Cosmos 2499 28 May 04:31:24 04:37:02 25° 271° (W) 04:42:34 435.465 / 435.565
KKS-1 28 May 04:33:17 04:36:53 23° 264° (W) 04:40:24 437.445
MOZHAYETS 4 28 May 04:34:00 04:37:15 20° 72° (ENE) 04:40:39
AIST 2 28 May 04:45:38 04:49:44 50° 61° (ENE) 04:53:45 435.215
BEESAT 2 28 May 04:48:59 04:52:36 30° 248° (WSW) 04:56:06 435.950
Gurwin Techsat 1B 28 May 04:49:37 04:54:05 27° 289° (WNW) 04:58:27 435.225
AO-7 28 May 05:10:34 05:18:44 57° 102° (ESE) 05:26:56 29.400- 29.500
PHONESAT 2.4 28 May 05:12:06 05:14:10 15° 354° (N) 05:16:14 2401.200-2431.200
HORYU 2 28 May 05:22:27 05:26:51 66° 283° (WNW) 05:31:12 437.375
Cosmos 2491 28 May 05:49:07 05:53:00 14° 66° (ENE) 05:57:37 435.465 / 435.565
JAS-2 28 May 06:07:45 06:12:17 30° 287° (WNW) 06:16:54 435.910
VERMONT LUNAR 28 May 06:07:52 06:10:15 19° 16° (NNE) 06:12:39 437.305
MOZHAYETS 4 28 May 06:10:23 06:14:20 28° 264° (W) 06:18:14
CUBESAT XI-V 28 May 06:16:06 06:19:15 19° 72° (ENE) 06:22:35 437.345
ISS 28 May 06:24:48 06:27:05 18° 37° (NE) 06:29:25 145.825
STRAND 1 28 May 06:28:08 06:29:10 11° 67° (ENE) 06:30:36 437.568
CUTE-I 28 May 06:28:48 06:30:30 12° 91° (E) 06:32:37 437.470
YUBILEINY 28 May 06:34:07 06:37:51 14° 83° (E) 06:42:20 435.215
Cubesat XI-IV 28 May 06:47:56 06:51:46 21° 94° (E) 06:55:48 437.490
PHONESAT 2.4 28 May 06:50:51 06:53:09 17° 11° (N) 06:55:29 2401.200-2431.200
AO-7 28 May 07:04:22 07:11:07 27° 296° (WNW) 07:17:35 29.400- 29.500
PRISM 28 May 07:07:10 07:10:42 30° 74° (ENE) 07:14:18 437.425
M-CUBED/EXP-1 PRIME 28 May 07:22:20 07:25:56 27° 71° (ENE) 07:29:24 437.505
AUBIESAT-1 28 May 07:29:16 07:32:53 28° 71° (ENE) 07:36:20 437.475
AIST 1 28 May 07:39:20 07:41:41 15° 75° (ENE) 07:44:15
Cosmos 2491 28 May 07:42:20 07:51:12 88° 264° (W) 07:59:58 435.465 / 435.565
VERMONT LUNAR 28 May 07:44:31 07:47:42 84° 215° (SW) 07:50:54 437.305
CUBESAT XI-V 28 May 07:52:29 07:56:31 30° 264° (W) 08:00:31 437.345
RS-15 28 May 07:54:50 08:03:08 27° 106° (ESE) 08:11:58 29.354- 29.394
ISS 28 May 08:00:39 08:03:32 29° 231° (SW) 08:06:25 145.825
STRAND 1 28 May 08:02:51 08:07:54 67° 258° (WSW) 08:12:59 437.568
CUTE-I 28 May 08:05:44 08:11:02 62° 285° (WNW) 08:16:20 437.470
BRITE-PL 28 May 08:11:50 08:13:34 12° 88° (E) 08:15:40 437.365/2234.400
YUBILEINY 28 May 08:25:03 08:33:51 84° 276° (W) 08:42:38 435.215
Cubesat XI-IV 28 May 08:27:04 08:32:00 37° 287° (WNW) 08:36:52 437.490
PHONESAT 2.4 28 May 08:28:23 08:31:46 51° 26° (NNE) 08:35:09 2401.200-2431.200
PRISM 28 May 08:43:51 08:46:14 15° 266° (W) 08:48:25 437.425
M-CUBED/EXP-1 PRIME 28 May 08:57:41 09:00:45 18° 259° (W) 09:03:31 437.505
DOVE 4 28 May 09:01:29 09:03:49 14° 90° (E) 09:06:23 437.250
CANX-2 28 May 09:01:38 09:03:18 12° 92° (E) 09:05:12 2200.000
AUBIESAT-1 28 May 09:04:44 09:07:37 17° 259° (W) 09:10:14 437.475
CUTE 1.7 + AOD 2 28 May 09:05:05 09:06:38 12° 92° (E) 09:08:27 437.475
AIST 1 28 May 09:15:31 09:19:28 32° 268° (W) 09:23:22
SEEDS 28 May 09:24:30 09:27:15 18° 94° (E) 09:30:09 437.485
COMPASS 1 28 May 09:35:26 09:38:18 19° 94° (E) 09:41:19 437.405
GOMX 1 28 May 09:42:50 09:48:05 72° 100° (E) 09:53:00 467.674
JUGNU 28 May 09:43:35 09:47:51 20° 166° (SSE) 09:52:09 437.505
Cosmos 2491 28 May 09:43:41 09:47:06 12° 278° (W) 09:49:39 435.465 / 435.565
AAUSAT CUBESAT 2 28 May 09:46:10 09:49:18 22° 95° (E) 09:52:33 437.432
BRITE-PL 28 May 09:47:08 09:52:40 64° 284° (WNW) 09:57:50 437.365/2234.400
HO-68 28 May 10:01:58 10:09:05 69° 103° (ESE) 10:16:12 435.675
RS-15 28 May 10:04:04 10:14:50 63° 301° (WNW) 10:25:47 29.354- 29.394
CINEMA 3 28 May 10:05:08 10:09:15 32° 96° (E) 10:13:13 145.822/145.860
PHONESAT 2.4 28 May 10:07:05 10:09:42 20° 218° (SW) 10:12:16 2401.200-2431.200
PCSat 28 May 10:19:14 10:23:46 27° 58° (ENE) 10:28:23 145.827
YUBILEINY 28 May 10:28:47 10:32:11 12° 295° (WNW) 10:34:43 435.215
CANX-2 28 May 10:35:31 10:39:25 36° 285° (WNW) 10:43:15 2200.000
DOVE 4 28 May 10:37:10 10:41:56 44° 286° (WNW) 10:46:23 437.250
CUTE 1.7 + AOD 2 28 May 10:38:50 10:42:44 37° 285° (WNW) 10:46:36 437.475
Cosmos 2504 28 May 10:40:52 10:49:21 78° 94° (E) 10:57:17 435.465 / 435.565
ZACube-1 28 May 10:43:04 10:46:29 24° 95° (E) 10:49:56 437.345
ANTELSAT 28 May 10:43:33 10:47:29 28° 73° (ENE) 10:51:28 437.575/2403.000
CUBEBUG 2 28 May 10:47:05 10:51:18 48° 99° (E) 10:55:24 437.445
Oscar 11 28 May 10:51:36 10:55:52 63° 100° (E) 11:00:07 145.826/435.025
DX 1 28 May 10:53:49 10:56:02 14° 93° (E) 10:58:29 434.975-435.025
SEEDS 28 May 10:59:33 11:03:04 26° 286° (WNW) 11:06:30 437.485
SRMSAT 28 May 11:03:48 11:07:36 18° 165° (SSE) 11:11:28 437.500
COMPASS 1 28 May 11:10:35 11:13:58 24° 287° (WNW) 11:17:15 437.405
VELOX 1 28 May 11:14:25 11:15:38 11° 92° (E) 11:17:09 145.980
TIGRISAT 28 May 11:14:55 11:19:33 63° 76° (ENE) 11:24:11 435.000
QB50P1 28 May 11:21:03 11:24:44 30° 74° (ENE) 11:28:30 145.935-145.965
AAUSAT CUBESAT 2 28 May 11:21:41 11:24:50 21° 287° (WNW) 11:27:52 437.432
POLYITAN 1 28 May 11:23:43 11:27:33 33° 74° (ENE) 11:31:26 437.675
GOMX 1 28 May 11:24:39 11:25:33 10° 294° (WNW) 11:26:04 467.674
JUGNU 28 May 11:31:16 11:36:24 30° 175° (S) 11:41:32 437.505
UWE-3 28 May 11:31:21 11:35:36 57° 284° (WNW) 11:39:43 435.000/436.395/437.385
UNISAT 6 28 May 11:35:58 11:40:39 70° 259° (W) 11:45:19 437.425
FUNcube-1 28 May 11:37:26 11:41:40 65° 283° (WNW) 11:45:47 145.935
DELFI C3 28 May 11:38:33 11:42:21 41° 285° (WNW) 11:46:07 145.870
CINEMA 3 28 May 11:43:09 11:46:11 17° 290° (WNW) 11:48:58 145.822/145.860
AISAT 28 May 11:44:17 11:48:09 29° 97° (E) 11:52:04 437.250
NANOSAT C BR1 28 May 11:51:13 11:55:28 73° 77° (ENE) 11:59:44 145.865
HO-68 28 May 11:51:36 11:56:15 18° 296° (WNW) 12:00:31 435.675
SO-50 28 May 11:59:42 12:03:00 18° 51° (NE) 12:06:26 436.795
QB50P2 28 May 12:00:20 12:04:36 82° 258° (WSW) 12:08:55 145.880/145.840
HUMSAT D 28 May 12:00:37 12:04:45 79° 283° (WNW) 12:08:50 437.325/437.525
CUSAT 1 28 May 12:00:57 12:04:02 14° 83° (E) 12:07:55 437.405
PCSat 28 May 12:02:27 12:07:10 30° 252° (WSW) 12:11:46 145.827
POPSAT HIP 1 28 May 12:12:17 12:16:31 59° 260° (W) 12:20:45 437.405
DUCHIFAT 1 28 May 12:12:59 12:17:12 59° 260° (W) 12:21:25 145.980
UKube-1 28 May 12:17:14 12:21:28 53° 285° (WNW) 12:25:42 .
ZACube-1 28 May 12:19:37 12:22:44 19° 288° (WNW) 12:25:41 437.345
ANTELSAT 28 May 12:20:35 12:24:14 21° 265° (W) 12:27:44 437.575/2403.000
RS-15 28 May 12:24:18 12:30:15 15° 328° (NNW) 12:35:37 29.354- 29.394
CUBEBUG 2 28 May 12:26:30 12:27:35 11° 291° (WNW) 12:28:22 437.445
DX 1 28 May 12:28:24 12:32:27 36° 286° (WNW) 12:36:26 434.975-435.025
BUGSAT 1 28 May 12:29:27 12:33:29 54° 260° (W) 12:37:36 437.445
50 SAT 28 May 12:36:23 12:40:07 47° 284° (WNW) 12:43:48 437.505
Cosmos 2504 28 May 12:38:40 12:43:32 16° 290° (WNW) 12:47:40 435.465 / 435.565
CUBEBUG 1 28 May 12:41:52 12:46:19 69° 101° (E) 12:50:44 437.445
VELOX 1 28 May 12:48:10 12:52:28 46° 285° (WNW) 12:56:44 145.980
SRMSAT 28 May 12:51:17 12:56:18 29° 173° (S) 13:01:19 437.500
GONETS M04 28 May 12:55:22 13:02:44 32° 88° (E) 13:10:22
ESTCUBE 1 28 May 12:56:44 13:01:15 67° 284° (WNW) 13:05:44 437.505/2401.250
QB50P1 28 May 12:57:53 13:00:40 16° 266° (W) 13:03:17 145.935-145.965
POLYITAN 1 28 May 13:01:00 13:03:33 15° 267° (W) 13:05:56 437.675
SPROUT 28 May 13:15:06 13:19:10 40° 98° (E) 13:23:14 437.525
DANDE 28 May 13:18:16 13:24:41 49° 91° (E) 13:32:33 436.750
JUGNU 28 May 13:19:55 13:25:00 30° 185° (S) 13:30:03 437.505
Oscar 19 28 May 13:21:12 13:25:01 22° 70° (ENE) 13:29:00 437.125/150
AISAT 28 May 13:21:20 13:24:34 19° 289° (WNW) 13:27:37 437.250
TISAT 1 28 May 13:32:22 13:36:27 45° 99° (E) 13:40:32 437.305
CUSAT 1 28 May 13:38:34 13:45:36 88° 277° (W) 13:53:54 437.405
SO-50 28 May 13:39:07 13:43:48 43° 247° (WSW) 13:48:21 436.795
Gurwin Techsat 1B 28 May 14:25:14 14:29:25 25° 71° (ENE) 14:33:44 435.225
SRMSAT 28 May 14:39:54 14:45:02 31° 183° (S) 14:50:10 437.500
GONETS M04 28 May 14:51:02 14:59:23 44° 282° (WNW) 15:07:38
O/OREOS (USA 219) 28 May 14:51:12 14:53:32 15° 102° (ESE) 14:56:07 437.305
SPROUT 28 May 14:52:54 14:54:56 13° 290° (WNW) 14:56:43 437.525
Oscar 19 28 May 14:59:29 15:04:11 34° 262° (W) 15:08:51 437.125/150
DANDE 28 May 15:02:23 15:08:22 28° 291° (WNW) 15:15:00 436.750
Cosmos 2499 28 May 15:06:17 15:13:52 43° 91° (E) 15:21:04 435.465 / 435.565
ITUPSAT 1 28 May 15:08:36 15:13:25 81° 104° (ESE) 15:18:13 437.325
JUGNU 28 May 15:09:25 15:13:32 19° 194° (SSW) 15:17:35 437.505
TISAT 1 28 May 15:10:36 15:11:52 11° 290° (WNW) 15:12:52 437.305
BEESAT 28 May 15:15:16 15:20:03 83° 283° (WNW) 15:24:49 436.000
ITAMSAT 1 28 May 15:16:30 15:21:41 88° 257° (WSW) 15:26:53 435.822/435.867
SWISSCUBE 28 May 15:24:06 15:28:49 59° 284° (WNW) 15:33:31 437.505
CUSAT 1 28 May 15:25:37 15:29:44 14° 297° (WNW) 15:33:27 437.405
STARS 28 May 15:53:54 15:57:19 23° 96° (E) 16:00:50 437.465
AO-7 28 May 16:03:00 16:10:41 45° 68° (ENE) 16:18:30 29.400- 29.500
Gurwin Techsat 1B 28 May 16:04:37 16:09:16 30° 263° (W) 16:13:52 435.225
JAS-2 28 May 16:11:56 16:18:34 54° 75° (ENE) 16:24:29 435.910
HORYU 2 28 May 16:14:33 16:18:54 52° 75° (ENE) 16:23:16 437.375
O/OREOS (USA 219) 28 May 16:28:31 16:32:42 36° 293° (WNW) 16:36:50 437.305
SRMSAT 28 May 16:29:17 16:33:45 22° 193° (SSW) 16:38:10 437.500
KKS-1 28 May 16:29:21 16:33:49 73° 283° (WNW) 16:38:14 437.445
Cosmos 2499 28 May 17:00:06 17:07:07 29° 284° (WNW) 17:13:31 435.465 / 435.565
BEESAT 2 28 May 17:01:04 17:02:39 12° 109° (ESE) 17:04:30 435.950
RS-15 28 May 17:01:35 17:09:39 22° 40° (NE) 17:18:31 29.354- 29.394
STARS 28 May 17:30:10 17:33:42 23° 288° (WNW) 17:37:06 437.465
BEESAT 3 28 May 17:45:11 17:49:10 60° 115° (ESE) 17:53:12 437.485
CUTE-I 28 May 17:45:43 17:47:12 11° 67° (ENE) 17:49:02 437.470
AO-7 28 May 17:56:22 18:03:37 32° 262° (W) 18:10:43 29.400- 29.500
JAS-2 28 May 17:59:02 18:03:49 19° 265° (W) 18:07:56 435.910
Cubesat XI-IV 28 May 18:04:37 18:08:11 19° 69° (ENE) 18:11:59 437.490
MOZHAYETS 4 28 May 18:10:42 18:15:16 75° 284° (WNW) 18:19:51
SRMSAT 28 May 18:22:03 18:22:25 10° 199° (SSW) 18:22:36 437.500
BEESAT 2 28 May 18:36:36 18:40:26 38° 301° (WNW) 18:44:18 435.950
AIST 2 28 May 18:37:38 18:41:41 47° 114° (ESE) 18:45:49 435.215
Cosmos 2491 28 May 18:42:12 18:47:57 21° 85° (E) 18:54:13 435.465 / 435.565
YUBILEINY 28 May 18:43:21 18:51:06 37° 76° (ENE) 18:59:01 435.215
RS-15 28 May 19:12:18 19:24:09 84° 63° (ENE) 19:36:25 29.354- 29.394
CUTE-I 28 May 19:21:30 19:26:47 68° 258° (WSW) 19:32:05 437.470
Cubesat XI-IV 28 May 19:43:04 19:48:02 40° 261° (W) 19:53:00 437.490
CUBESAT XI-V 28 May 19:54:25 19:59:08 76° 283° (WNW) 20:03:50 437.345
AIST 1 28 May 20:04:26 20:05:09 11° 88° (E) 20:06:12
AIST 2 28 May 20:18:31 20:20:35 13° 309° (NW) 20:22:26 435.215
STRAND 1 28 May 20:19:25 20:24:34 70° 102° (ESE) 20:29:41 437.568
HO-68 28 May 20:24:51 20:30:37 28° 67° (ENE) 20:36:35 435.675
PRISM 28 May 20:29:58 20:34:07 67° 284° (WNW) 20:38:15 437.425
Cosmos 2491 28 May 20:35:30 20:44:12 64° 279° (W) 20:52:57 435.465 / 435.565
YUBILEINY 28 May 20:40:03 20:47:54 38° 271° (W) 20:55:34 435.215
Cosmos 2504 28 May 20:43:06 20:47:01 16° 70° (ENE) 20:51:25 435.465 / 435.565
M-CUBED/EXP-1 PRIME 28 May 20:43:21 20:46:34 50° 105° (ESE) 20:49:53 437.505
GOMX 1 28 May 20:44:12 20:48:55 40° 74° (ENE) 20:53:57 467.674
AUBIESAT-1 28 May 20:49:40 20:52:54 52° 105° (ESE) 20:56:15 437.475
BRITE-PL 28 May 20:50:58 20:55:57 78° 77° (ENE) 21:01:23 437.365/2234.400
CINEMA 3 28 May 21:01:17 21:04:30 18° 71° (ENE) 21:07:56 145.822/145.860
CANX-2 28 May 21:21:54 21:26:08 69° 78° (ENE) 21:30:22 2200.000
CUTE 1.7 + AOD 2 28 May 21:25:09 21:29:23 67° 77° (ENE) 21:33:36 437.475
RS-15 28 May 21:27:34 21:35:46 20° 255° (WSW) 21:43:11 29.354- 29.394
DOVE 4 28 May 21:35:18 21:40:23 89° 271° (W) 21:45:41 437.250
ZACube-1 28 May 21:35:25 21:36:29 11° 70° (ENE) 21:37:51 437.345
AIST 1 28 May 21:38:28 21:42:28 39° 279° (W) 21:46:29
CUBEBUG 2 28 May 21:39:35 21:43:10 22° 72° (ENE) 21:46:53 437.445
Oscar 11 28 May 21:41:06 21:44:28 23° 73° (ENE) 21:47:56 145.826/435.025
SEEDS 28 May 21:44:42 21:48:56 84° 258° (WSW) 21:53:10 437.485
COMPASS 1 28 May 21:54:50 21:59:01 80° 259° (WSW) 22:03:12 437.405
STRAND 1 28 May 22:02:05 22:03:16 11° 293° (WNW) 22:04:05 437.568
AAUSAT CUBESAT 2 28 May 22:05:19 22:09:29 69° 259° (W) 22:13:37 437.432
HO-68 28 May 22:11:17 22:18:06 45° 260° (W) 22:24:53 435.675
DELFI C3 28 May 22:19:40 22:23:31 47° 76° (ENE) 22:27:25 145.870
UWE-3 28 May 22:21:44 22:26:17 53° 76° (ENE) 22:30:52 435.000/436.395/437.385
GOMX 1 28 May 22:23:42 22:27:15 18° 269° (W) 22:30:43 467.674
FUNcube-1 28 May 22:26:40 22:31:02 45° 75° (ENE) 22:35:24 145.935
Cosmos 2504 28 May 22:33:58 22:41:03 64° 267° (W) 22:48:15 435.465 / 435.565
CINEMA 3 28 May 22:36:45 22:41:23 39° 263° (W) 22:46:05 145.822/145.860
AISAT 28 May 22:38:02 22:39:58 13° 70° (ENE) 22:42:09 437.250
HUMSAT D 28 May 22:46:27 22:50:16 32° 74° (ENE) 22:54:08 437.325/437.525
ISS 28 May 22:58:48 23:01:59 56° 315° (NW) 23:05:10 145.825
UKube-1 28 May 23:05:51 23:10:04 56° 76° (ENE) 23:14:20 .
ZACube-1 28 May 23:07:55 23:12:26 55° 260° (W) 23:16:56 437.345
TIGRISAT 28 May 23:13:55 23:17:00 20° 94° (E) 23:20:10 435.000
50 SAT 28 May 23:14:55 23:18:36 37° 75° (ENE) 23:22:19 437.505
CUBEBUG 2 28 May 23:15:34 23:19:42 28° 264° (W) 23:23:46 437.445
Oscar 11 28 May 23:17:11 23:20:35 22° 265° (W) 23:23:52 145.826/435.025
DX 1 28 May 23:17:27 23:21:48 88° 72° (ENE) 23:26:11 434.975-435.025
